Dumas, TX

9:59 PM CST on December 02, 2016 (GMT -0600)
Moore County

Weather History for KDUX - February, 2012

Change the Weather History Date:

Monday, February 13, 2012

  Actual Average (KDHT) Record (KDHT)
Temperature  
Mean Temperature 40 °F 37 °F  
Max Temperature 55 °F 52 °F 79 °F (1954)
Min Temperature 26 °F 22 °F 2 °F (1978)
Degree Days  
Heating Degree Days 24 28  
Month to date heating degree days 372  
Since 1 July heating degree days 3254  
Cooling Degree Days 0 0  
Month to date cooling degree days 0  
Year to date cooling degree days 0  
Moisture  
Dew Point 28 °F    
Average Humidity 69    
Maximum Humidity 100    
Minimum Humidity 33    
Precipitation  
Precipitation 0.00 in 0.01 in 0.47 in (1969)
Month to date precipitation 0.19  
Year to date precipitation 0.71  
Snow  
Snow 0.00 in 0.10 in 1.20 in (1997)
Month to date snowfall 1.7  
Since 1 July snowfall 12.2  
Snow Depth -    
Sea Level Pressure  
Sea Level Pressure 29.72 in    
Wind  
Wind Speed 17 mph (West)    
Max Wind Speed 28 mph    
Max Gust Speed 33 mph    
Visibility 10 miles    
Events      
T = Trace of Precipitation, MM = Missing Value Source: NWS Daily Summary

Daily Weather History Graph

Daily Weather History Graph

Search for Another Location

Airport or City:

Trip Planner

Search our weather history database for the weather conditions in past years. The results will help you decide how hot, cold, wet, or windy it might be!

Date:

Astronomy

Feb. 13, 2012 Rise Set
Actual Time 7:37 AM CST 6:27 PM CST
Civil Twilight 7:11 AM CST 6:53 PM CST
Nautical Twilight 6:41 AM CST 7:23 PM CST
Astronomical Twilight 6:11 AM CST 7:53 PM CST
Moon 12:12 AM CST (2/13) 10:53 AM CST (2/13)
Length of Visible Light 11h 42m
Length of Day
10h 49m
Waning Gibbous, 61% of the Moon is Illuminated
Feb 13
Waning Gibbous
Feb 14
Last Quarter
Feb 21
New
Feb 29
First Quarter
Mar 8
Full

Hourly Weather History & Observations

Time (CST) Temp. Windchill Dew Point Humidity Pressure Visibility Wind Dir Wind Speed Gust Speed Precip Events Conditions
12:15 AM 26.6 °F 10.8 °F 23.0 °F 86% 29.80 in 10.0 mi SSW 27.6 mph 33.4 mph N/A   Overcast
12:35 AM 26.6 °F 11.1 °F 23.0 °F 86% 29.79 in 10.0 mi SSW 26.5 mph 31.1 mph N/A   Overcast
12:55 AM 26.6 °F 11.4 °F 23.0 °F 86% 29.78 in 10.0 mi SSW 25.3 mph 31.1 mph N/A   Overcast
1:15 AM 26.6 °F 13.8 °F 23.0 °F 86% 29.78 in 10.0 mi SSW 17.3 mph 26.5 mph N/A   Overcast
1:35 AM 26.6 °F 13.8 °F 24.8 °F 93% 29.77 in 10.0 mi SSW 17.3 mph 24.2 mph N/A   Overcast
1:55 AM 26.6 °F 12.7 °F 24.8 °F 93% 29.75 in 10.0 mi SSW 20.7 mph 27.6 mph N/A   Overcast
2:15 AM 26.6 °F 12.7 °F 24.8 °F 93% 29.74 in 10.0 mi SSW 20.7 mph 28.8 mph N/A   Overcast
2:35 AM 28.4 °F 13.8 °F 24.8 °F 86% 29.73 in 7.0 mi SSW 25.3 mph 29.9 mph N/A   Overcast
2:55 AM 28.4 °F 15.8 °F 24.8 °F 86% 29.73 in 7.0 mi SSW 18.4 mph 23.0 mph N/A   Overcast
3:15 AM 26.6 °F 16.8 °F 24.8 °F 93% 29.74 in 7.0 mi SSW 10.4 mph - N/A   Overcast
3:35 AM 28.4 °F 21.2 °F 24.8 °F 86% 29.73 in 10.0 mi SSW 6.9 mph - N/A   Overcast
3:55 AM 26.6 °F 15.2 °F 24.8 °F 93% 29.71 in 7.0 mi SSW 13.8 mph - N/A   Mostly Cloudy
4:15 AM 26.6 °F 14.7 °F 24.8 °F 93% 29.68 in 7.0 mi SSW 15.0 mph - N/A   Scattered Clouds
4:35 AM 26.6 °F 13.8 °F 24.8 °F 93% 29.68 in 10.0 mi SW 17.3 mph - N/A   Clear
4:55 AM 26.6 °F 12.7 °F 26.6 °F 100% 29.68 in 10.0 mi SW 20.7 mph - N/A   Clear
5:15 AM 28.4 °F 15.1 °F 26.6 °F 93% 29.67 in 10.0 mi SW 20.7 mph 25.3 mph N/A   Clear
5:35 AM 28.4 °F 15.1 °F 26.6 °F 93% 29.68 in 10.0 mi SW 20.7 mph - N/A   Clear
5:55 AM 28.4 °F 15.4 °F 26.6 °F 93% 29.68 in 10.0 mi SW 19.6 mph - N/A   Clear
6:15 AM 26.6 °F 13.4 °F 24.8 °F 93% 29.68 in 10.0 mi SW 18.4 mph - N/A   Clear
6:35 AM 26.6 °F 13.4 °F 24.8 °F 93% 29.67 in 10.0 mi SW 18.4 mph - N/A   Clear
6:55 AM 26.6 °F 13.4 °F 24.8 °F 93% 29.67 in 10.0 mi SW 18.4 mph - N/A   Clear
7:15 AM 28.4 °F 16.2 °F 26.6 °F 93% 29.68 in 10.0 mi WSW 17.3 mph - N/A   Clear
7:35 AM 28.4 °F 16.2 °F 26.6 °F 93% 29.67 in 10.0 mi WSW 17.3 mph - N/A   Clear
7:55 AM 28.4 °F 15.1 °F 26.6 °F 93% 29.68 in 10.0 mi WSW 20.7 mph - N/A   Clear
8:15 AM 30.2 °F 17.8 °F 26.6 °F 86% 29.68 in 10.0 mi WSW 19.6 mph - N/A   Clear
8:35 AM 30.2 °F 17.8 °F 28.4 °F 93% 29.68 in 10.0 mi WSW 19.6 mph - N/A   Clear
8:55 AM 32.0 °F 20.1 °F 30.2 °F 93% 29.69 in 10.0 mi WSW 19.6 mph - N/A   Clear
9:15 AM 33.8 °F 22.8 °F 30.2 °F 87% 29.69 in 10.0 mi WSW 18.4 mph 23.0 mph N/A   Clear
9:35 AM 35.6 °F 25.2 °F 30.2 °F 81% 29.70 in 10.0 mi WSW 18.4 mph 24.2 mph N/A   Clear
9:55 AM 37.4 °F 27.5 °F 32.0 °F 81% 29.71 in 10.0 mi West 18.4 mph - N/A   Clear
10:15 AM 39.2 °F 30.2 °F 32.0 °F 75% 29.72 in 10.0 mi WNW 17.3 mph - N/A   Clear
10:35 AM 41.0 °F 32.5 °F 32.0 °F 70% 29.72 in 10.0 mi West 17.3 mph - N/A   Clear
10:55 AM 42.8 °F 35.8 °F 32.0 °F 66% 29.72 in 10.0 mi WNW 13.8 mph - N/A   Clear
11:15 AM 44.6 °F 39.2 °F 32.0 °F 61% 29.72 in 10.0 mi WNW 10.4 mph - N/A   Clear
11:35 AM 44.6 °F 39.7 °F 32.0 °F 61% 29.73 in 10.0 mi NW 9.2 mph - N/A   Clear
11:55 AM 48.2 °F - 32.0 °F 54% 29.73 in 10.0 mi NW 11.5 mph 16.1 mph N/A   Clear
12:15 PM 50.0 °F - 32.0 °F 50% 29.73 in 10.0 mi NW 5.8 mph - N/A   Clear
12:35 PM 50.0 °F - 32.0 °F 50% 29.73 in 10.0 mi NE 5.8 mph - N/A   Clear
12:55 PM 51.8 °F - 32.0 °F 47% 29.71 in 10.0 mi North 6.9 mph - N/A   Clear
1:15 PM 53.6 °F - 30.2 °F 41% 29.71 in 10.0 mi NNW 8.1 mph - N/A   Clear
1:35 PM 53.6 °F - 28.4 °F 38% 29.70 in 10.0 mi NNE 6.9 mph - N/A   Clear
1:55 PM 53.6 °F - 28.4 °F 38% 29.69 in 10.0 mi North 12.7 mph 16.1 mph N/A   Clear
2:15 PM 55.4 °F - 28.4 °F 36% 29.69 in 10.0 mi NNW 4.6 mph 17.3 mph N/A   Clear
2:35 PM 55.4 °F - 28.4 °F 36% 29.69 in 10.0 mi NW 5.8 mph 9.2 mph N/A   Clear
2:55 PM 55.4 °F - 28.4 °F 36% 29.69 in 10.0 mi North 13.8 mph - N/A   Clear
3:15 PM 55.4 °F - 26.6 °F 33% 29.69 in 10.0 mi NNW 10.4 mph 16.1 mph N/A   Clear
3:35 PM 55.4 °F - 26.6 °F 33% 29.70 in 10.0 mi NNW 12.7 mph 19.6 mph N/A   Clear
3:55 PM 55.4 °F - 26.6 °F 33% 29.71 in 10.0 mi NNW 12.7 mph 17.3 mph N/A   Clear
4:15 PM 55.4 °F - 28.4 °F 36% 29.71 in 10.0 mi North 10.4 mph 16.1 mph N/A   Clear
4:35 PM 55.4 °F - 28.4 °F 36% 29.71 in 10.0 mi North 6.9 mph - N/A   Clear
4:55 PM 55.4 °F - 28.4 °F 36% 29.72 in 10.0 mi NNW 6.9 mph - N/A   Clear
5:15 PM 55.4 °F - 28.4 °F 36% 29.72 in 10.0 mi NNE 6.9 mph - N/A   Clear
5:55 PM 51.8 °F - 30.2 °F 44% 29.73 in 10.0 mi ENE 6.9 mph - N/A   Clear
6:15 PM 50.0 °F - 30.2 °F 47% 29.74 in 10.0 mi ENE 6.9 mph - N/A   Clear
6:35 PM 48.2 °F - 30.2 °F 50% 29.75 in 10.0 mi East 4.6 mph - N/A   Clear
6:55 PM 44.6 °F 40.7 °F 30.2 °F 57% 29.76 in 10.0 mi East 6.9 mph - N/A   Clear
7:15 PM 42.8 °F 37.5 °F 30.2 °F 61% 29.76 in 10.0 mi East 9.2 mph - N/A   Clear
7:35 PM 41.0 °F 35.2 °F 30.2 °F 65% 29.77 in 10.0 mi East 9.2 mph - N/A   Clear
7:55 PM 41.0 °F 35.2 °F 30.2 °F 65% 29.77 in 10.0 mi East 9.2 mph - N/A   Clear
8:15 PM 41.0 °F 34.7 °F 32.0 °F 70% 29.77 in 10.0 mi East 10.4 mph - N/A   Clear
8:35 PM 41.0 °F 35.2 °F 30.2 °F 65% 29.78 in 10.0 mi East 9.2 mph - N/A   Clear
8:55 PM 37.4 °F 31.4 °F 30.2 °F 75% 29.78 in 10.0 mi East 8.1 mph - N/A   Clear
9:15 PM 37.4 °F 31.4 °F 30.2 °F 75% 29.80 in 10.0 mi ESE 8.1 mph - N/A   Clear
9:35 PM 37.4 °F 32.1 °F 30.2 °F 75% 29.81 in 10.0 mi ESE 6.9 mph - N/A   Clear
9:55 PM 33.8 °F 29.6 °F 30.2 °F 87% 29.81 in 10.0 mi ESE 4.6 mph - N/A   Clear
10:15 PM 35.6 °F 31.7 °F 32.0 °F 87% 29.82 in 10.0 mi SE 4.6 mph - N/A   Clear
10:35 PM 33.8 °F - 30.2 °F 87% 29.82 in 10.0 mi Calm Calm - N/A   Clear
10:55 PM 33.8 °F - 30.2 °F 87% 29.82 in 10.0 mi Calm Calm - N/A   Clear
11:15 PM 35.6 °F 32.8 °F 32.0 °F 87% 29.82 in 10.0 mi SE 3.5 mph - N/A   Clear
11:55 PM 32.0 °F - 28.4 °F 87% 29.82 in 10.0 mi Calm Calm - N/A   Clear